x

Buoy A01 - Mass. Bay/stellwagen (44029) Wave Buoy

4:04 - Wed 23rd Apr 2014 All times are EDT. -4 hours from GMT.

  • Sig Wave height 2.6ft
  • Peak Period 8s
  • Wind
    13mph, 18mph gusts
  • Sea Temp 43°f
  • Aire Temp 46°f
  • Sea Pressure 994.8mb
  • Buoy A01 - Mass. Bay/stellwagen
  • Buoy A01 - Mass. Bay/stellwagen

More Historic Weather Station data

Upgrade to MSW Pro to gain access to the past 30 days of data for over 8000 Wavebouys and Weather Stations around the globe.

Join Pro

Comparision Forecast

View Surf forecast
   
mié 04/23 4:04 2.5ft 8s 13 18 mph 994.8mb 43f 46f
3:04 2.5ft 3s 18 22 mph 994.5mb 43f 46f
2:04 3.5ft 3s 22 29 mph 994.3mb 43f 47f
1:04 2.5ft 8s 22 25 mph 994.3mb 43f 47f
12:04 2ft 8s 13 16 mph 994.5mb 43f 48f
11:04 2ft 8s 7
mph
995mb 44f 48f
10:04 1.6ft 8s 9 11 mph 995.9mb 43f 48f
9:04 1.6ft 8s 9 11 mph 994.7mb 43f 48f
8:04 1.6ft 8s 4
mph
995.1mb 43f 45f
7:04 2ft 8s 7 9 mph 995.2mb 42f 45f
6:04 2ft 8s 7
mph
995.1mb 43f 46f
5:04  -   -  13
mph
995.1mb 43f 45f
4:04 2.5ft 8s 4
mph
995mb 43f 45f
3:04 2.5ft 8s 9
mph
995.5mb 43f 45f
2:04 2.5ft 8s 7 9 mph 995.5mb 43f 44f
1:04 3.5ft 11s 7
mph
996.3mb 43f 45f
12:04 2ft 5s 11
mph
997mb 43f 45f
mar 04/22 11:04 2.5ft 4s 16 18 mph 997.3mb 43f 47f
10:04 2ft 5s 11 13 mph 997.5mb 43f 46f
9:04 2.5ft 5s 11 13 mph 997.5mb 43f 46f
8:04 3ft 5s 16
mph
997.1mb 43f 47f
7:04 3.5ft 8s 16 18 mph 997mb 43f 48f
6:04 3ft 5s 16 18 mph 997.1mb 43f 49f
5:04 3.5ft 5s 18 20 mph 997.6mb 44f 48f
4:04 3.5ft 5s 20 25 mph 997.9mb 43f 49f
3:04 2.5ft 3s 20 27 mph 998.6mb 43f 50f
2:04 3ft 8s 16 18 mph 1000mb 44f 48f
1:04 2.5ft 8s 11 13 mph 1001mb 44f 47f
12:04 2.5ft 8s 13 16 mph 1002.1mb 43f 48f
11:04 2ft 8s 9
mph
1003mb 43f 45f
10:04 2ft 8s 9 11 mph 1003.7mb 43f 45f
9:04 2ft 8s 9 11 mph 1004.3mb 43f 43f
8:04 2ft 8s 9
mph
1005mb 43f 43f
7:04 2ft 8s 9 11 mph 1005.5mb 43f 44f
6:04 2ft 8s 7 9 mph 1005.5mb 43f 44f
5:04 2ft 8s 13
mph
1005.7mb 43f 44f
4:04 2ft 4s 11 13 mph 1006.2mb 42f 44f
3:04 2.5ft 8s 9 11 mph 1007.2mb 42f 44f
2:04 2.5ft 8s 13 16 mph 1007.6mb 42f 45f
1:04 2.5ft 8s 11 16 mph 1008.2mb 42f 45f
12:04 2ft 4s 13
mph
1009.2mb 42f 45f
lun 04/21 11:04 2.5ft 4s 13
mph
1009.7mb 42f 44f
10:04 2.5ft 4s 13 16 mph 1010mb 43f 45f
9:04 2.5ft 4s 11
mph
1010.5mb 43f 46f
8:04 2ft 4s 9 11 mph 1010.5mb 43f 45f
7:04 2.5ft 4s 16 18 mph 1010.4mb 43f 47f
6:04 2.5ft 3s 18 20 mph 1010.7mb 43f 48f
5:04 2.5ft 3s 18
mph
1011.7mb 43f 47f
4:04 2.5ft 8s 16 20 mph 1012.7mb 43f 47f
3:04 2ft 8s 11 13 mph 1014.3mb 43f 44f
2:04 1.6ft 8s 13
mph
1015.6mb 43f 45f
1:04 1.6ft 8s 13 16 mph 1016.9mb 43f 43f
12:04 1.6ft 8s 13 16 mph 1018.7mb 42f 42f
11:04 1.3ft 5s 11 13 mph 1020.2mb 42f 41f
10:04 1.6ft 8s 11 13 mph 1020.8mb 42f 39f
9:04 1.6ft 8s 11
mph
1021.5mb 42f 39f
8:04 2ft 8s 11 13 mph 1021.9mb 41f 39f
7:04 2ft 8s 11 13 mph 1022.3mb 41f 40f
6:04 1.6ft 4s 11 13 mph 1022.5mb 41f 39f
5:04 1.6ft 8s 9 11 mph 1022.5mb 41f 38f
4:04 2ft 8s 9 11 mph 1023.2mb 42f 39f
3:04 2ft 8s 11
mph
1023.5mb 41f 38f
2:04 2.5ft 8s 9 11 mph 1024.4mb 42f 39f
1:04 2ft 6s 9 11 mph 1025.6mb 41f 40f
12:04 2.5ft 8s 13 16 mph 1026.5mb 42f 41f
dom 04/20 11:04 2.5ft 8s 11 13 mph 1027.3mb 41f 41f
10:04 2.5ft 8s 13 16 mph 1027.9mb 42f 41f
9:04 2.5ft 8s 16
mph
1028.3mb 43f 41f
8:04 2.5ft 6s 13 18 mph 1028.6mb 42f 41f
7:04 2.5ft 8s 9 11 mph 1029mb 43f 42f
6:04 2.5ft 8s 7 9 mph 1029.5mb 43f 42f
5:04 2.5ft 8s 4 7 mph 1029.9mb 43f 42f
4:04 3ft 11s 4
mph
1030.7mb 44f 42f
3:04 3ft 8s 2
mph
1031.1mb 43f 41f
2:04 3ft 8s 2 4 mph 1031.5mb 43f 41f
1:04 3.5ft 8s 4
mph
1031.8mb 43f 42f
12:04 3ft 8s 4 7 mph 1032.4mb 42f 42f
11:04 2.5ft 8s 9 11 mph 1032.3mb 42f 41f
10:04 2.5ft 8s 9
mph
1032.7mb 42f 43f
9:04 2.5ft 8s 9 11 mph 1032.5mb 41f 43f
8:04 4ft 11s 11 13 mph 1031.9mb 41f 42f
7:04 4ft 8s 11 13 mph 1031.3mb 41f 41f
6:04 3ft 11s 11 13 mph 1030.5mb 41f 41f
5:04 3ft 11s 7 9 mph 1029.2mb 40f 41f
4:04 3.5ft 11s 9
mph
1029.1mb 40f 41f
3:04 3ft 11s 7 9 mph 1028.9mb 41f 41f
2:04 3.5ft 8s 9 11 mph 1029mb 41f 42f
1:04 4ft 11s 7 9 mph 1028.6mb 41f 42f
12:04 4.5ft 8s 11 13 mph 1028.1mb 41f 44f
sáb 04/19 11:04 3.5ft 11s 11 13 mph 1027.4mb 41f 44f